Showing default

OPS 9327 (IDSCS 14), 2654

Orbit data source: Space-Track

OPS 9327 (IDSCS 14), 2654 is a payload satellite owned by USAF SSD (US) in GEO that was launched on Wed, 18 Jan 1967 UTC via a TITAN IIIC launch vehicle from the Air Force Eastern Test Range (AFETR). Payloads include a variety of satellites, spacecraft, and rockets equipped with specific instruments for various scientific and technological missions. These include communications satellites like Starlink; space stations such as the ISS; scientific satellites like the Hubble; Earth observation satellites from companies like Planet Labs, Umbra, and HawkEye 360; GPS; miniature CubeSats for education and research; and military/defense satellites.

Not visible in the next 10 days
OPS 9327 (IDSCS 14) details
Identifier
2654, 1967-003G
Orbit
GEO
Last TLE update22 hours ago
Origin
Flag of USUSAF SSD (US)
ManufacturerPhilco-Ford WDL
MissionNon-operational Defense Communications
Bus & MotorIDCSP, Unknown motor
Mass45 kg wet, 45 kg dry
Launch date (UTC)
1967-01-18 (58 years ago)
Launch vehicle
TITAN IIIC
Launch site
Air Force Eastern Test Range (AFETR)
Object type
Payload
Rocket body
Debris
Shape & HBRIco Poly, 0.9 m
Radar Cross Section0.926 m², Medium (>0.1 m² and < 1m²)

Expand to show TLE details & history

TLE from 22 hours ago
0 OPS 9327 (IDSCS 14)
1 02654U 67003G   24355.62141821 -.00000092  00000-0  00000-0 0  9999
2 02654   7.0997  51.9157 0056585  35.8110 340.5354  1.07511217133631
Epoch: 2024-12-20T14:54Z
Definitive object data (Epoch: 2024-12-20T14:54:50.533Z)
Latitude1.98203°
Longitude114.53503°
Altitude33,655.695 km
Speed3.164 km/s
True Right ascension04h 31m 43s
True Declination1° 58' 48"
Sunlit
Object was in daylight at TLE epoch
Visualization TLE readout
Latitude1.13708°
Longitude107.58798°
Altitude33,666.87 km
Speed3.163 km/s
Apparent Right ascension03h 40m 14s
Apparent Declination-4° 24' 49"
Sunlit
Object is in daylight
Visualization observer readout
Local Sidereal Time11:50:19
Azimuth288.72° WNW
Elevation-27.418°
Doppler factor1
Orbital elements
Apogee altitude34,100.727 km
Perigee altitude33,645.206 km
Semi-major axis40,251.104 km
Eccentricity0.0056585
Inclination7.0997°
RAAN51.9157°
Arg. of periapsis35.811°
True anomaly340.31788°
Mean anomaly340.5354°
Eccentric anomaly340.42679°
Mean motion0.26877 °/min
BSTARUnknown
Orbital period1339.45 mins
Loading historical data...
2654 neighbors
Authenticating...
Loading maneuver chart data...
Loading historical data...
Loading historical data...
Loading historical data...
Loading historical data...
Loading historical data...
Loading historical data...
Loading historical data...

OPS 9327 (IDSCS 14) Visibility forecast

Observer location: undefined°, undefined

OPS 9327 (IDSCS 14) is not visible in the next 10 days
Span
Click to sort rows by Start time (UTC) header in descending order
Start Az.
Max El. time (UTC)
Max El. Az.
Max El.
End time (UTC)
End Az.
|